FW3613 Weather Reports


Display with metric or nautical units.
time (UTC)temp
F
wind
direction
speed
MPH
gust
MPH
rain 1hr
in
rain 24hr
in
rain mn
in
humidity
%
barometer
mb
20260906031524 64 152 0.0 0.0 0.00 0.02 0.02 68 1012.8
20260906031023 64 150 0.0 1.0 0.00 0.02 0.02 67 1012.7
20260906030523 65 152 0.0 1.0 0.00 0.02 0.02 67 1012.6
20260906030023 65 150 0.0 1.0 0.00 0.02 0.02 65 1012.5
20260906025522 66 154 0.0 1.0 0.00 0.02 0.02 63 1012.6
20260906025022 66 154 0.0 1.0 0.00 0.02 0.02 61 1012.6
20260906024522 67 154 0.0 2.0 0.00 0.02 0.02 60 1012.4
20260906024022 68 154 0.0 2.0 0.00 0.02 0.02 59 1012.4
20260906023523 69 207 0.0 1.0 0.00 0.02 0.02 58 1012.3
20260906023022 70 308 0.0 2.0 0.00 0.02 0.02 55 1012.2
20260906022520 70 319 0.0 3.0 0.00 0.02 0.02 51 1012.3
20260906022025 71 319 1.0 3.0 0.00 0.02 0.02 50 1012.3
20260906021520 71 318 1.0 3.0 0.00 0.02 0.02 49 1012.3
20260906021019 71 320 1.0 3.0 0.00 0.02 0.02 48 1012.4
20260906020519 71 326 1.0 4.0 0.00 0.02 0.02 48 1012.4
20260906020020 72 319 1.0 4.0 0.00 0.02 0.02 47 1012.5
20260906015518 72 323 1.0 4.0 0.00 0.02 0.02 45 1012.5
20260906015018 73 323 1.0 4.0 0.00 0.02 0.02 45 1012.4
20260906014522 73 322 1.0 5.0 0.00 0.02 0.02 44 1012.5
20260906014018 73 318 1.0 6.0 0.00 0.02 0.02 43 1012.5
20260906013518 73 316 2.0 7.0 0.00 0.02 0.02 43 1012.6
20260906013017 74 315 2.0 7.0 0.00 0.02 0.02 42 1012.6
20260906012516 74 316 2.0 6.0 0.00 0.02 0.02 42 1012.6
20260906012016 74 324 2.0 5.0 0.00 0.02 0.02 42 1012.6
20260906011516 74 307 1.0 7.0 0.00 0.02 0.02 42 1012.6
20260906011016 74 322 2.0 7.0 0.00 0.02 0.02 41 1012.6
20260906010516 74 327 1.0 7.0 0.00 0.02 0.02 41 1012.6
20260906010016 74 322 3.0 7.0 0.00 0.02 0.02 40 1012.7
20260906005516 75 304 1.0 9.0 0.00 0.02 0.02 40 1012.7
20260906005017 75 311 2.0 9.0 0.00 0.02 0.02 40 1012.7
20260906004516 75 322 2.0 6.0 0.00 0.02 0.02 40 1012.7
20260906004015 75 320 3.0 6.0 0.00 0.02 0.02 40 1012.7
20260906003515 75 316 2.0 6.0 0.00 0.02 0.02 40 1012.7
20260906003014 75 323 2.0 6.0 0.00 0.02 0.02 40 1012.7
20260906002514 75 311 3.0 6.0 0.00 0.02 0.02 39 1012.6
20260906002015 76 340 3.0 6.0 0.00 0.02 0.02 39 1012.6
20260906001514 76 328 1.0 6.0 0.00 0.02 0.02 39 1012.6
20260906001013 76 329 2.0 7.0 0.00 0.02 0.02 39 1012.6
20260906000516 76 332 3.0 7.0 0.00 0.02 0.02 39 1012.7
20260906000013 76 5 1.0 7.0 0.00 0.02 0.02 39 1012.7
20260905235513 76 130 1.0 7.0 0.00 0.02 0.02 38 1012.7
20260905235012 76 307 3.0 6.0 0.00 0.02 0.02 38 1012.7
20260905234513 76 322 2.0 8.0 0.00 0.02 0.02 37 1012.6
20260905234012 76 316 3.0 8.0 0.00 0.02 0.02 38 1012.7
20260905233512 76 301 2.0 4.0 0.00 0.02 0.02 39 1012.7
20260905233010 77 304 1.0 4.0 0.00 0.02 0.02 38 1012.7
20260905232510 77 283 1.0 5.0 0.00 0.02 0.02 38 1012.7
20260905232011 77 318 2.0 5.0 0.00 0.02 0.02 38 1012.7
20260905231508 77 322 1.0 3.0 0.00 0.02 0.02 37 1012.8
20260905231007 77 140 0.0 5.0 0.00 0.02 0.02 38 1012.9
20260905230508 78 311 2.0 5.0 0.00 0.02 0.02 36 1013.0
20260905230007 78 318 2.0 4.0 0.00 0.02 0.02 37 1013.0
20260905225508 78 321 0.0 3.0 0.00 0.02 0.02 36 1013.0
20260905225005 78 285 1.0 4.0 0.00 0.02 0.02 37 1013.0
20260905224515 77 163 0.0 6.0 0.00 0.02 0.02 37 1013.1
20260905224003 77 304 0.0 7.0 0.00 0.02 0.02 37 1013.2
20260905223502 77 325 2.0 7.0 0.00 0.02 0.02 37 1013.3
20260905223002 77 313 1.0 5.0 0.00 0.02 0.02 38 1013.2
20260905222502 77 153 0.0 3.0 0.00 0.02 0.02 36 1013.4
20260905222059 77 333 0.0 2.0 0.00 0.02 0.02 35 1013.4
20260905221600 77 309 1.0 2.0 0.00 0.02 0.02 35 1013.5
20260905221059 77 142 0.0 4.0 0.00 0.02 0.02 36 1013.6
20260905220558 77 139 1.0 4.0 0.00 0.02 0.02 36 1013.6
20260905220100 77 298 1.0 3.0 0.00 0.02 0.02 37 1013.6
20260905215557 77 323 1.0 3.0 0.00 0.07 0.02 37 1013.7
20260905215054 76 45 0.0 4.0 0.00 0.07 0.02 40 1013.9
20260905214556 75 318 1.0 4.0 0.00 0.07 0.02 38 1014.0
20260905214054 76 203 1.0 4.0 0.00 0.07 0.02 40 1014.1
20260905213552 75 344 1.0 4.0 0.00 0.07 0.02 41 1014.2
20260905213052 74 323 2.0 4.0 0.00 0.07 0.02 41 1014.2
20260905212551 74 318 2.0 5.0 0.00 0.07 0.02 43 1014.3
20260905212051 74 311 0.0 5.0 0.00 0.07 0.02 43 1014.4
20260905211550 73 314 1.0 4.0 0.00 0.07 0.02 43 1014.4
20260905211051 74 319 1.0 3.0 0.00 0.07 0.02 42 1014.5
20260905210550 74 330 0.0 3.0 0.00 0.07 0.02 43 1014.5
20260905210050 74 319 1.0 3.0 0.00 0.07 0.02 42 1014.6
20260905205550 75 122 1.0 5.0 0.00 0.07 0.02 42 1014.6
20260905205049 75 134 1.0 5.0 0.00 0.07 0.02 42 1014.7
20260905204547 74 144 1.0 3.0 0.00 0.07 0.02 43 1014.7
20260905204046 73 156 0.0 2.0 0.00 0.07 0.02 44 1014.7
20260905203548 73 129 0.0 2.0 0.00 0.07 0.02 45 1014.7
20260905203044 72 159 0.0 2.0 0.00 0.07 0.02 46 1014.8
20260905202542 72 142 1.0 2.0 0.00 0.07 0.02 47 1014.8
20260905202042 72 125 0.0 2.0 0.00 0.07 0.02 49 1014.8
20260905201542 72 134 0.0 2.0 0.00 0.07 0.02 49 1014.9
20260905201043 72 146 0.0 2.0 0.00 0.07 0.02 50 1014.9
20260905200540 71 146 0.0 3.0 0.00 0.07 0.02 49 1015.0
20260905200043 71 149 1.0 3.0 0.00 0.07 0.02 51 1015.1
20260905195540 71 148 0.0 2.0 0.00 0.11 0.02 49 1015.2
20260905195037 71 125 0.0 2.0 0.00 0.11 0.02 51 1015.3
20260905194537 71 70 0.0 3.0 0.00 0.11 0.02 53 1015.4
20260905194036 71 146 1.0 3.0 0.00 0.11 0.02 54 1015.4
20260905193535 70 129 1.0 3.0 0.00 0.11 0.02 56 1015.4
20260905193034 69 313 1.0 4.0 0.00 0.11 0.02 55 1015.5
20260905192533 69 309 2.0 4.0 0.00 0.11 0.02 54 1015.6
20260905192033 70 309 1.0 5.0 0.00 0.11 0.02 56 1015.6
20260905191531 69 150 1.0 5.0 0.00 0.11 0.02 57 1015.6
20260905191030 69 138 0.0 3.0 0.00 0.11 0.02 60 1015.7
20260905190532 68 130 0.0 3.0 0.00 0.11 0.02 61 1015.8
20260905190032 67 321 0.0 3.0 0.00 0.11 0.02 61 1015.8
20260905185527 67 353 0.0 3.0 0.00 0.12 0.02 63 1015.9
20260905185025 66 305 0.0 4.0 0.00 0.12 0.02 63 1015.9
20260905184526 66 315 1.0 3.0 0.00 0.12 0.02 63 1016.0
20260905184025 66 306 0.0 4.0 0.00 0.12 0.02 64 1016.1
20260905183524 66 323 0.0 2.0 0.00 0.12 0.02 64 1016.1
20260905183024 66 128 1.0 2.0 0.00 0.12 0.02 65 1016.1
20260905182523 65 141 0.0 2.0 0.00 0.12 0.02 67 1016.2
20260905182020 64 138 0.0 2.0 0.00 0.12 0.02 68 1016.3
20260905181519 64 136 0.0 2.0 0.00 0.12 0.02 68 1016.3
20260905181019 64 323 0.0 2.0 0.00 0.12 0.02 68 1016.4
20260905180517 63 314 0.0 4.0 0.00 0.12 0.02 69 1016.5
20260905180015 62 316 0.0 4.0 0.00 0.12 0.02 69 1016.5
20260905175514 62 352 0.0 3.0 0.00 0.12 0.02 70 1016.6
20260905175015 62 322 1.0 4.0 0.00 0.12 0.02 70 1016.6
20260905174516 61 315 1.0 4.0 0.00 0.12 0.02 70 1016.6
20260905174011 61 316 0.0 4.0 0.00 0.12 0.02 71 1016.6
20260905173510 61 314 1.0 4.0 0.00 0.12 0.02 71 1016.6
20260905173023 60 321 0.0 3.0 0.00 0.12 0.02 72 1016.6
20260905172508 60 318 1.0 3.0 0.00 0.12 0.02 73 1016.6
20260905172007 60 318 0.0 3.0 0.00 0.12 0.02 73 1016.6
20260905171509 59 326 0.0 3.0 0.00 0.12 0.02 74 1016.6
20260905171004 59 1 0.0 3.0 0.00 0.12 0.02 75 1016.6
20260905170504 59 333 1.0 3.0 0.00 0.12 0.02 75 1016.6
20260905170003 59 143 0.0 2.0 0.00 0.12 0.02 77 1016.6
20260905165503 58 296 0.0 2.0 0.00 0.12 0.02 77 1016.6
20260905165104 58 297 0.0 2.0 0.00 0.12 0.02 77 1016.7
20260905164600 58 340 0.0 3.0 0.00 0.12 0.02 79 1016.7
20260905164059 57 330 0.0 3.0 0.00 0.12 0.02 78 1016.6
20260905163600 57 138 0.0 2.0 0.00 0.12 0.02 80 1016.6
20260905163101 57 317 0.0 2.0 0.00 0.12 0.02 80 1016.6
20260905162556 57 318 0.0 1.0 0.00 0.12 0.02 81 1016.6
20260905162056 56 346 0.0 1.0 0.00 0.12 0.02 82 1016.6
20260905161554 56 346 0.0 2.0 0.00 0.12 0.02 83 1016.6
20260905161052 56 146 0.0 2.0 0.00 0.12 0.02 85 1016.6
20260905160551 55 157 0.0 1.0 0.00 0.12 0.02 85 1016.5
20260905160050 55 325 0.0 0.0 0.00 0.12 0.02 86 1016.6
20260905155549 55 322 0.0 0.0 0.00 0.12 0.02 89 1016.6
20260905155047 54 321 0.0 0.0 0.00 0.12 0.02 89 1016.6
20260905154546 54 320 0.0 0.0 0.00 0.12 0.02 90 1016.6
20260905154045 53 321 0.0 1.0 0.00 0.12 0.02 90 1016.5
20260905153543 53 321 0.0 1.0 0.00 0.12 0.02 91 1016.6
20260905153043 53 321 0.0 1.0 0.00 0.12 0.02 92 1016.5
20260905152542 52 320 0.0 1.0 0.00 0.12 0.02 93 1016.5
20260905152042 52 321 0.0 0.0 0.00 0.12 0.02 94 1016.5
20260905151543 51 320 0.0 0.0 0.00 0.12 0.02 94 1016.5
20260905151042 51 320 0.0 0.0 0.00 0.12 0.02 95 1016.6
20260905150541 51 321 0.0 0.0 0.00 0.12 0.02 95 1016.7
20260905150041 50 320 0.0 0.0 0.00 0.12 0.02 95 1016.6
20260905145541 50 320 0.0 0.0 0.00 0.12 0.02 95 1016.8
20260905145041 50 320 0.0 0.0 0.00 0.12 0.02 95 1016.8
20260905144543 50 320 0.0 0.0 0.00 0.12 0.02 95 1016.7
20260905144040 50 320 0.0 0.0 0.00 0.12 0.02 95 1016.7
20260905143540 49 321 0.0 1.0 0.00 0.12 0.02 95 1016.6
20260905143040 49 320 0.0 1.0 0.00 0.12 0.02 95 1016.6
20260905142539 49 321 0.0 0.0 0.00 0.12 0.02 95 1016.6
20260905142038 49 321 0.0 0.0 0.00 0.12 0.02 95 1016.6
20260905141543 49 320 0.0 0.0 0.00 0.12 0.02 95 1016.6
20260905141037 48 320 0.0 0.0 0.00 0.12 0.02 95 1016.5
20260905140537 48 320 0.0 0.0 0.00 0.12 0.02 95 1016.5
20260905140037 48 320 0.0 0.0 0.00 0.12 0.02 95 1016.5
20260905135536 48 321 0.0 0.0 0.00 0.12 0.02 95 1016.4
20260905135035 48 320 0.0 1.0 0.00 0.12 0.02 95 1016.4
20260905134536 48 320 0.0 0.0 0.00 0.12 0.02 95 1016.3
20260905134036 48 320 0.0 0.0 0.00 0.12 0.02 95 1016.3
20260905133534 48 320 0.0 0.0 0.00 0.12 0.02 95 1016.3
20260905133034 48 320 0.0 0.0 0.00 0.12 0.02 95 1016.2
20260905132532 48 321 0.0 0.0 0.00 0.12 0.02 95 1016.2
20260905132031 49 320 0.0 0.0 0.00 0.12 0.02 95 1016.2
20260905131545 49 320 0.0 0.0 0.00 0.12 0.02 95 1016.2
20260905131030 49 320 0.0 0.0 0.00 0.12 0.02 95 1016.1
20260905130530 49 321 0.0 0.0 0.00 0.12 0.02 95 1016.1
20260905130033 49 320 0.0 0.0 0.00 0.12 0.02 95 1015.9
20260905125529 49 320 0.0 0.0 0.00 0.12 0.02 95 1015.9
20260905125030 49 320 0.0 1.0 0.00 0.12 0.02 95 1015.9
20260905124539 49 321 0.0 1.0 0.00 0.12 0.02 95 1015.8
20260905124028 49 321 0.0 0.0 0.00 0.12 0.02 95 1015.8
20260905123528 49 321 0.0 0.0 0.00 0.12 0.02 94 1015.8
20260905123027 49 320 0.0 0.0 0.00 0.12 0.02 94 1015.7
20260905122528 49 321 0.0 0.0 0.00 0.12 0.02 94 1015.6
20260905122026 49 320 0.0 0.0 0.00 0.12 0.02 94 1015.6
20260905121531 49 321 0.0 0.0 0.00 0.12 0.02 94 1015.7
20260905121025 49 321 0.0 0.0 0.00 0.12 0.02 94 1015.8
20260905120527 49 321 0.0 0.0 0.00 0.12 0.02 94 1015.9
20260905120023 49 321 0.0 0.0 0.00 0.12 0.02 94 1015.8
20260905115524 49 321 0.0 0.0 0.00 0.12 0.02 94 1015.7
20260905115023 50 320 0.0 0.0 0.00 0.12 0.02 94 1015.6
20260905114536 50 321 0.0 0.0 0.00 0.12 0.02 94 1015.7
20260905114021 50 320 0.0 0.0 0.00 0.12 0.02 94 1015.7
20260905113521 50 320 0.0 0.0 0.00 0.12 0.02 94 1015.7
20260905113020 50 320 0.0 0.0 0.00 0.12 0.02 94 1015.6
20260905112519 50 321 0.0 0.0 0.00 0.12 0.02 94 1015.6
20260905112019 50 321 0.0 0.0 0.00 0.12 0.02 94 1015.4
20260905111519 50 321 0.0 0.0 0.00 0.12 0.02 94 1015.3
20260905111020 50 320 0.0 0.0 0.00 0.12 0.02 94 1015.4
20260905110517 50 320 0.0 0.0 0.00 0.12 0.02 94 1015.3
20260905110017 51 321 0.0 0.0 0.00 0.12 0.02 93 1015.2
20260905105515 51 320 0.0 0.0 0.00 0.12 0.02 94 1015.3
20260905105015 51 321 0.0 0.0 0.00 0.12 0.02 94 1015.3
20260905104514 51 321 0.0 0.0 0.00 0.12 0.02 94 1015.4
20260905104013 51 320 0.0 0.0 0.00 0.12 0.02 94 1015.5
20260905103516 52 321 0.0 0.0 0.00 0.12 0.02 94 1015.5
20260905103024 52 321 0.0 0.0 0.00 0.12 0.02 94 1015.5
20260905102511 52 320 0.0 0.0 0.00 0.12 0.02 93 1015.6
20260905102011 52 321 0.0 0.0 0.00 0.12 0.02 93 1015.6
20260905101523 52 321 0.0 0.0 0.00 0.12 0.02 93 1015.5
20260905101009 52 320 0.0 0.0 0.00 0.12 0.02 93 1015.6
20260905100509 52 321 0.0 0.0 0.00 0.12 0.02 93 1015.3
20260905100008 52 321 0.0 1.0 0.00 0.12 0.02 93 1015.2
20260905095509 52 321 0.0 1.0 0.00 0.13 0.02 93 1015.3
20260905095009 53 321 0.0 1.0 0.00 0.13 0.02 93 1015.3
20260905094509 53 321 0.0 0.0 0.00 0.13 0.02 93 1015.2
20260905094011 53 321 0.0 0.0 0.00 0.13 0.02 93 1015.2
20260905093508 53 320 0.0 0.0 0.00 0.13 0.02 93 1015.2
20260905093008 53 321 0.0 0.0 0.00 0.13 0.02 93 1015.2
20260905092509 53 321 0.0 0.0 0.00 0.13 0.02 93 1015.1
20260905092009 53 321 0.0 0.0 0.00 0.13 0.02 93 1015.3
20260905091509 53 320 0.0 0.0 0.00 0.13 0.02 93 1015.4
20260905091007 53 320 0.0 0.0 0.00 0.13 0.02 93 1015.4
20260905090510 53 321 0.0 0.0 0.00 0.13 0.02 93 1015.4
20260905090006 53 321 0.0 0.0 0.00 0.13 0.02 93 1015.3
20260905085508 53 321 0.0 0.0 0.00 0.15 0.02 93 1015.3
20260905085005 53 320 0.0 0.0 0.00 0.15 0.02 93 1015.3
20260905084513 53 321 0.0 0.0 0.00 0.15 0.02 93 1015.0
20260905084004 53 321 0.0 0.0 0.00 0.15 0.02 93 1015.1
20260905083504 52 321 0.0 0.0 0.00 0.15 0.02 93 1015.0
20260905083004 52 321 0.0 0.0 0.00 0.15 0.02 92 1015.0
20260905082504 53 321 0.0 0.0 0.00 0.15 0.02 93 1015.1
20260905082004 53 321 0.0 0.0 0.00 0.15 0.02 93 1014.9
20260905081503 53 320 0.0 0.0 0.00 0.15 0.02 93 1015.0
20260905081002 52 320 0.0 0.0 0.00 0.15 0.02 92 1015.0
20260905080502 52 320 0.0 0.0 0.00 0.15 0.02 92 1015.0
20260905080002 52 320 0.0 0.0 0.00 0.15 0.02 92 1014.9
20260905075502 52 321 0.0 0.0 0.00 0.25 0.02 92 1015.0
20260905075002 52 321 0.0 0.0 0.00 0.25 0.02 92 1015.0
20260905074501 52 320 0.0 0.0 0.01 0.25 0.02 92 1015.1
20260905074002 52 321 0.0 1.0 0.02 0.25 0.02 91 1015.0
20260905073501 52 320 0.0 1.0 0.02 0.25 0.02 91 1015.0
20260905073003 52 321 0.0 1.0 0.02 0.25 0.02 91 1015.0
20260905072603 53 320 0.0 1.0 0.02 0.25 0.02 91 1015.0
20260905072100 53 321 0.0 0.0 0.02 0.25 0.02 91 1014.9
20260905071603 53 321 0.0 0.0 0.02 0.25 0.02 91 1014.9
20260905071101 53 320 0.0 0.0 0.02 0.25 0.02 91 1015.2
20260905070558 53 321 0.0 1.0 0.02 0.25 0.02 91 1015.0
20260905070108 53 320 0.0 1.0 0.02 0.25 0.02 91 1014.9
20260905065558 53 320 0.0 2.0 0.02 0.28 0.02 91 1014.6
20260905065057 53 321 0.0 2.0 0.02 0.28 0.02 91 1014.7
20260905064556 53 319 1.0 2.0 0.01 0.27 0.01 90 1014.7
20260905064055 52 143 0.0 1.0 0.00 0.26 0.00 90 1014.7
20260905063557 52 142 0.0 1.0 0.00 0.26 0.00 90 1015.0
20260905063056 52 137 0.0 2.0 0.00 0.26 0.00 90 1014.5
20260905062553 52 137 0.0 3.0 0.00 0.26 0.00 90 1014.0
20260905062053 53 134 1.0 3.0 0.00 0.26 0.00 90 1014.5
20260905061607 53 143 0.0 2.0 0.00 0.26 0.00 90 1013.9
20260905061054 52 77 0.0 2.0 0.00 0.26 0.00 91 1013.2
20260905060550 52 139 0.0 1.0 0.00 0.26 0.00 91 1013.6
20260905060049 52 132 0.0 0.0 0.00 0.26 0.00 90 1014.0
20260905055547 52 133 0.0 0.0 0.00 0.26 0.26 90 1014.1
20260905055047 52 133 0.0 0.0 0.00 0.26 0.26 90 1014.1
20260905054548 52 133 0.0 0.0 0.00 0.26 0.26 90 1013.9
20260905054047 52 132 0.0 0.0 0.00 0.26 0.26 90 1014.5
20260905053547 53 133 0.0 0.0 0.00 0.26 0.26 90 1014.4
20260905053051 53 132 0.0 0.0 0.00 0.26 0.26 91 1014.4
20260905052548 53 132 0.0 0.0 0.00 0.26 0.26 90 1014.4
20260905052049 53 132 0.0 0.0 0.00 0.26 0.26 91 1014.2
20260905051546 53 132 0.0 0.0 0.00 0.26 0.26 91 1014.2
20260905051045 53 133 0.0 1.0 0.00 0.26 0.26 91 1014.2
20260905050547 53 132 0.0 1.0 0.00 0.26 0.26 91 1014.1
20260905050045 53 134 0.0 1.0 0.00 0.26 0.26 91 1014.1
20260905045544 53 135 0.0 1.0 0.00 0.26 0.26 91 1014.7
20260905045046 53 135 0.0 1.0 0.00 0.26 0.26 91 1014.4
20260905044545 53 135 0.0 2.0 0.00 0.26 0.26 91 1014.3
20260905044049 53 130 0.0 2.0 0.00 0.26 0.26 91 1014.3
20260905043544 54 150 0.0 1.0 0.00 0.26 0.26 91 1013.8
20260905043046 53 323 0.0 0.0 0.00 0.26 0.26 91 1013.5
20260905042545 54 323 0.0 0.0 0.00 0.26 0.26 90 1014.0
20260905042043 54 318 0.0 0.0 0.00 0.26 0.26 90 1014.5
20260905041543 54 318 0.0 0.0 0.00 0.26 0.26 90 1014.1
20260905041042 54 318 0.0 0.0 0.00 0.26 0.26 91 1013.9
20260905040542 53 318 0.0 0.0 0.00 0.26 0.26 91 1013.9
20260905040044 53 346 0.0 0.0 0.00 0.26 0.26 90 1014.2
20260905035542 53 77 0.0 0.0 0.00 0.26 0.26 90 1014.9
20260905035042 53 19 0.0 0.0 0.00 0.26 0.26 90 1014.4
20260905034547 53 19 0.0 0.0 0.00 0.26 0.26 90 1014.1
20260905034042 53 19 0.0 0.0 0.00 0.26 0.26 89 1014.3
20260905033541 54 8 0.0 1.0 0.00 0.26 0.26 89 1014.1
20260905033042 54 8 0.0 1.0 0.00 0.26 0.26 89 1014.0
20260905032541 54 323 0.0 0.0 0.00 0.26 0.26 89 1014.1
20260905032044 54 323 0.0 0.0 0.00 0.26 0.26 88 1013.9